User: anonymous   Login
Location: Unspecified
(0.0000°N, 0.0000°E)
Time: 20:18:05
(UTC+00:00)
Language:

STARLINK-31231 - Orbit

View from above orbital plane
View from above orbital plane
View from above satellite
View from above satellite

Ground track
Ground track

The orbit is defined by the following mean orbital elements,

1 59034U          26145.49089344 +.00000000 +00000-0 +22682-4 0 00007
2 59034  43.0028 309.8619 0001009 276.6883  83.3854 15.27577698    04
Epoch (UTC): 25 May 2026 11:46:53
Eccentricity: 0.0001009
inclination: 43.0028°
perigee height: 482 km
apogee height: 484 km
right ascension of ascending node: 309.8619°
argument of perigee: 276.6883°
revolutions per day: 15.27577698
mean anomaly at epoch: 83.3854°

The dashed part of the orbit path shows where the satellite is in the earth's shadow,  

DLR